Miscellaneous Local Product
Issued by NWS Hastings, NE

Home | Current Version | Previous Version | Text Only | Print | Product List | Glossary Off
Versions: 1 2 3 4 5 6 7 8 9 10 11 12 13 14 15 16 17 18 19 20 21 22 23 24 25 26 27 28 29 30 31 32 33 34 35 36 37 38 39 40 41 42 43 44 45 46 47 48 49 50

126
AXUS43 KGID 202002
MISGRI

GID CWA HOURLY WEATHER ROUNDUP
NATIONAL WEATHER SERVICE HASTINGS NE
300 PM CDT FRI APR 20 2018

NOTE: "FAIR" INDICATES FEW OR NO CLOUDS BELOW 12,000 FEET WITH NO
SIGNIFICANT WEATHER AND/OR OBSTRUCTIONS TO VISIBILITY.

...SOUTH CENTRAL NEBRASKA...

CITY           SKY/WX    TMP DP  RH WIND       PRES   REMARKS
GRAND ISLAND   CLOUDY    56  31  38 SE20G26   30.24F
KEARNEY        CLOUDY    54  32  43 S10       30.27R
HASTINGS       CLOUDY    56  31  38 SE17G24   30.22S
ORD            CLOUDY    52  32  46 SE14G22   30.25R
YORK             N/A     59  28  31 S20G26    30.24F
AURORA         CLOUDY    58  28  32 SE17G23   30.24F
LEXINGTON      LGT RAIN  50  32  50 SE9       30.26R
HOLDREGE       CLOUDY    51  33  49 SE9       30.24R
HEBRON         CLOUDY    60  29  30 SE14G22   30.24F

...NEBRASKA PANHANDLE...

CITY           SKY/WX    TMP DP  RH WIND       PRES   REMARKS
CHADRON        LGT RAIN  43  36  76 S28G37    30.12R
ALLIANCE       LGT SNOW  33  33 100 SE20      30.12F VSB 3/4 WCI  21
SCOTTSBLUFF    CLOUDY    39  35  86 SE24G32   30.07F WCI  28
SIDNEY         CLOUDY    34  32  92 SE25G31   30.08F HAZE    WCI  21

...WESTERN AND NORTH CENTRAL NEBRASKA...

CITY           SKY/WX    TMP DP  RH WIND       PRES   REMARKS
VALENTINE      CLOUDY    50  31  48 S17       30.25R
AINSWORTH      CLOUDY    47  33  58 S15       30.26R
ONEILL         CLOUDY    53  33  45 SE10      30.27F
BROKEN BOW     CLOUDY    50  32  50 S7        30.27R
IMPERIAL       LGT RAIN  40  36  86 E14G23    30.18F WCI  32
NORTH PLATTE   CLOUDY    47  32  56 S9        30.23F
MCCOOK         CLOUDY    49  33  54 E6        30.20F

...EASTERN NEBRASKA...

CITY           SKY/WX    TMP DP  RH WIND       PRES   REMARKS
NORFOLK        CLOUDY    57  30  35 SE18      30.26F
SO SIOUX CITY  CLOUDY    58  32  37 SE14      30.34F
TEKAMAH        MOSUNNY   61  28  28 SE14G24   30.32F
COLUMBUS       CLOUDY    59  30  33 SE14      30.28F
ALBION         CLOUDY    56  33  41 SE15G24   30.26F
OMAHA EPPLEY   CLOUDY    62  28  27 SE14G22   30.32F
OFFUTT AFB     MOSUNNY   62  30  30 SE16      30.30F
MILLARD        CLOUDY    62  31  32 E8G16     30.31F
LINCOLN        MOSUNNY   61  27  27 SE16G25   30.29F
NEBRASKA CITY  CLOUDY    62  31  31 SE15G22   30.30F
BEATRICE       SUNNY     64  31  29 SE15G24   30.25F
FALLS CITY     SUNNY     61  25  25 E16G29    30.30F

...NORTHERN KANSAS...

CITY           SKY/WX    TMP DP  RH WIND       PRES   REMARKS
GOODLAND       CLOUDY    42  38  85 SE14      30.12R
HILL CITY      CLOUDY    52  32  46 S12       30.23R
NORTON         MOCLDY    54  30  40 SE10      30.22R
PHILLIPSBURG   SUNNY     57  30  35 E10G17    30.22R
SMITH CENTER   MOSUNNY   55  30  38 SE15G23   30.21S
BELOIT         PTSUNNY   57  28  33 SE21      30.19F
HAYS           CLOUDY    59  32  36 SE21      30.16S
RUSSELL        CLOUDY    61  33  35 SE21G29   30.15F
CONCORDIA      CLOUDY    62  30  29 SE20G28   30.21F
SALINA         MOSUNNY   66  33  29 SE23G29   30.20F
TOPEKA         SUNNY     64  30  27 SE16G25   30.29F



USA.gov is the U.S. government's official web portal to all federal, state and local government web resources and services.